Change the Weather History Date:

Tuesday, May 13, 2014

  Actual Average Record
Temperature  
Mean Temperature 44 °F 55 °F  
Max Temperature 59 °F 74 °F 86 °F (2007)
Min Temperature 28 °F 36 °F 27 °F (2000)
Degree Days  
Heating Degree Days 21 10  
Month to date heating degree days 186 156  
Since 1 July heating degree days 6073 6226  
Cooling Degree Days 0 0  
Month to date cooling degree days 0 0  
Year to date cooling degree days 0 0  
Moisture  
Dew Point 18 °F    
Average Humidity 47    
Maximum Humidity 78    
Minimum Humidity 15    
Precipitation  
Precipitation 0.00 in 0.04 in 0.04 in (2007)
Month to date precipitation 0.14 0.52  
Year to date precipitation 2.01 4.74  
Sea Level Pressure  
Sea Level Pressure 30.30 in    
Wind  
Wind Speed 8 mph (NNE)    
Max Wind Speed 21 mph    
Max Gust Speed 28 mph    
Visibility 10 miles    
Events      
T = Trace of Precipitation, MM = Missing Value Source: NWS Daily Summary

Daily Weather History Graph

Daily Weather History Graph

Search for Another Location

Airport or City:

Trip Planner

Search our weather history database for the weather conditions in past years. The results will help you decide how hot, cold, wet, or windy it might be!

Date:

Astronomy

May. 13, 2014 Rise Set
Actual Time 6:07 AM MDT 8:14 PM MDT
Civil Twilight 5:38 AM MDT 8:43 PM MDT
Nautical Twilight 5:03 AM MDT 9:19 PM MDT
Astronomical Twilight 4:24 AM MDT 9:57 PM MDT
Moon 7:21 PM MDT (5/13) 5:23 AM MDT (5/13)
Length of Visible Light 15h 05m
Length of Day
14h 07m
Waxing Gibbous, 99% of the Moon is Illuminated
May 13
Waxing Gibbous
May 14
Full
May 21
Last Quarter
May 28
New
Jun 5
First Quarter

Hourly Weather History & Observations

Time (MDT) Temp. Windchill Dew Point Humidity Pressure Visibility Wind Dir Wind Speed Gust Speed Precip Events Conditions
1:53 AM 30.9 °F 26.2 °F 24.1 °F 76% 30.22 in 10.0 mi ENE 4.6 mph - N/A   Clear
2:53 AM 30.9 °F 26.2 °F 23.0 °F 72% 30.22 in 10.0 mi NE 4.6 mph - N/A   Clear
3:53 AM 30.9 °F 23.5 °F 24.1 °F 76% 30.24 in 10.0 mi ESE 8.1 mph - N/A   Scattered Clouds
4:53 AM 34.0 °F 29.8 °F 23.0 °F 64% 30.22 in 10.0 mi ESE 4.6 mph - N/A   Overcast
5:53 AM 30.9 °F - 23.0 °F 72% 30.25 in 10.0 mi Calm Calm - N/A   Clear
7:53 AM 39.9 °F 33.9 °F 25.0 °F 55% 30.28 in 10.0 mi NNW 9.2 mph - N/A   Clear
10:53 AM 50.0 °F - 24.1 °F 36% 30.32 in 10.0 mi SE 6.9 mph - N/A   Clear
11:53 AM 48.9 °F - 21.0 °F 33% 30.32 in 10.0 mi Calm Calm - N/A   Mostly Cloudy
12:53 PM 52.0 °F - 17.1 °F 25% 30.30 in 10.0 mi WNW 10.4 mph - N/A   Scattered Clouds
1:53 PM 54.0 °F - 17.1 °F 23% 30.30 in 10.0 mi North 8.1 mph 19.6 mph N/A   Scattered Clouds
2:53 PM 54.0 °F - 19.0 °F 25% 30.30 in 10.0 mi NE 6.9 mph 18.4 mph N/A   Mostly Cloudy
4:10 PM 57.9 °F - 15.1 °F 19% 30.35 in 10.0 mi NNW 17.3 mph 23.0 mph N/A   Partly Cloudy
4:53 PM 57.9 °F - 15.1 °F 19% 30.27 in 10.0 mi North 13.8 mph 28.8 mph N/A   Partly Cloudy
5:53 PM 57.0 °F - 10.9 °F 16% 30.30 in 10.0 mi North 16.1 mph 21.9 mph N/A   Clear
6:53 PM 54.0 °F - 10.9 °F 18% 30.30 in 10.0 mi NNE 17.3 mph - N/A   Clear
7:53 PM 51.1 °F - 12.9 °F 22% 30.30 in 10.0 mi NNE 13.8 mph - N/A   Clear
8:53 PM 45.0 °F 40.6 °F 14.0 °F 29% 30.33 in 10.0 mi NNE 8.1 mph - N/A   Clear
9:53 PM 39.9 °F 34.5 °F 15.1 °F 36% 30.37 in 10.0 mi NE 8.1 mph - N/A   Clear
10:53 PM 37.9 °F 31.5 °F 16.0 °F 41% 30.38 in 10.0 mi NNE 9.2 mph - N/A   Clear
11:53 PM 37.9 °F - 18.0 °F 45% 30.40 in 10.0 mi Calm Calm - N/A   Clear